Starlink 32504

operational
NORAD ID: 62024 Int'l Des: 2024-213 Owner: SPXS Country: US Constellation: starlink
LEOCIRCULAR

About Starlink 32504

Description loading...

Live Position

Loading 3D Globe...

Upcoming Passes

Altitude History

Altitude vs Time

uPlot chart will show altitude changes over time

Two-Line Element Set

1 62024U 24213S 25350.85293316 .00015070 00000-0 51976-3 0 9992
2 62024 53.1571 192.7930 0001344 100.7933 259.3219 15.30209047 60473
Epoch: Dec 16, 2025 • Age: 10 hours

Current Status

Altitude 486.2 km
Velocity 7.62 km/s
Sub-Earth Point -33.65°S, 148.37°W
Launch Date Nov 18, 2024
Age 1 years
Type internet

Technical Details

Classification Payload
Mass 730.00 kg
Dry Mass 700.00 kg
Total Mass 730.00 kg
Length 0.30 m
Diameter 4.10 m
Span 29.00 m
Shape Box + pan
Manufacturer SPXS
Bus Type Starlink V2M
Phase Status In Orbit
Owner/State SPXS/US

Large Constellations

Loading constellations...